CKS260 KCVG-PHNL

Flight info

Callsign CKS260
Flight time N/A
Altitude 34000
Route LOVEY8 CADIZ BDF FOD ONL Q122 LCU J94 FMG BEBOP R464 MAGGI MAGGI3
Aircraft B77L/H-SDE1E2E3FGHIJ2J3J4J5M1RWXY/LB1D1

Departure

Time 2026-04-30 09:43
Airport Cincinnati Northern Kentucky International Airport (KCVG)

Arrival

Time N/A
Airport Daniel K. Inouye International Airport (PHNL)
Time Latitude Longitude Altitude Speed Heading
2026-04-30 09:24 39.02761 -84.65093 905 ft 0 kts 270°
2026-04-30 09:33 39.02761 -84.65089 905 ft 2 kts 270°
2026-04-30 09:33 39.02761 -84.65070 905 ft 2 kts 270°
2026-04-30 09:34 39.02761 -84.65050 905 ft 2 kts 270°
2026-04-30 09:34 39.02761 -84.65031 905 ft 2 kts 284°
2026-04-30 09:34 39.02755 -84.65015 906 ft 2 kts 311°
2026-04-30 09:34 39.02743 -84.65002 906 ft 2 kts 336°
2026-04-30 09:35 39.02730 -84.64998 906 ft 1 kts 359°
2026-04-30 09:35 39.02725 -84.64998 906 ft 0 kts
2026-04-30 09:36 39.02727 -84.64998 906 ft 1 kts
2026-04-30 09:37 39.02758 -84.64996 905 ft 8 kts
2026-04-30 09:37 39.02845 -84.64996 904 ft 15 kts 360°
2026-04-30 09:37 39.02978 -84.64996 900 ft 22 kts 360°
2026-04-30 09:37 39.03135 -84.64996 896 ft 22 kts 360°
2026-04-30 09:38 39.03296 -84.64996 893 ft 22 kts 359°
2026-04-30 09:38 39.03448 -84.64994 892 ft 21 kts 359°
2026-04-30 09:38 39.03593 -84.64993 891 ft 20 kts 360°
2026-04-30 09:38 39.03727 -84.64993 892 ft 17 kts 359°
2026-04-30 09:39 39.03843 -84.64992 894 ft 15 kts
2026-04-30 09:39 39.03949 -84.64991 896 ft 15 kts 360°
2026-04-30 09:39 39.04064 -84.64990 897 ft 17 kts 360°
2026-04-30 09:39 39.04189 -84.64990 898 ft 18 kts 360°
2026-04-30 09:40 39.04306 -84.64990 899 ft 15 kts 359°
2026-04-30 09:40 39.04401 -84.64990 900 ft 10 kts
2026-04-30 09:40 39.04454 -84.65027 899 ft 8 kts 297°
2026-04-30 09:40 39.04462 -84.65113 898 ft 11 kts 271°
2026-04-30 09:41 39.04462 -84.65221 894 ft 10 kts 270°
2026-04-30 09:41 39.04494 -84.65292 893 ft 10 kts 344°
2026-04-30 09:41 39.04559 -84.65297 893 ft 8 kts 359°
2026-04-30 09:41 39.04613 -84.65301 893 ft 6 kts 337°
2026-04-30 09:42 39.04625 -84.65344 892 ft 0 kts 270°
2026-04-30 09:42 39.04626 -84.65398 891 ft 29 kts 271°
2026-04-30 09:42 39.04628 -84.66005 876 ft 106 kts 270°
2026-04-30 09:42 39.04631 -84.67256 880 ft 172 kts 270°
2026-04-30 09:43 39.04623 -84.68894 1419 ft 186 kts 271°
2026-04-30 09:43 39.04601 -84.70554 2292 ft 191 kts 274°
2026-04-30 09:43 39.04601 -84.72338 2689 ft 210 kts 275°
2026-04-30 09:43 39.04606 -84.74285 3161 ft 229 kts 275°
2026-04-30 09:44 39.04610 -84.76403 3694 ft 246 kts 274°
2026-04-30 09:44 39.04610 -84.78592 4542 ft 250 kts 274°
2026-04-30 09:44 39.04607 -84.80801 5506 ft 250 kts 274°
2026-04-30 09:44 39.04605 -84.83032 6353 ft 253 kts 273°
2026-04-30 09:45 39.04601 -84.85291 7213 ft 255 kts 273°
2026-04-30 09:45 39.04602 -84.87535 8081 ft 255 kts 273°
2026-04-30 09:45 39.04624 -84.89780 8958 ft 254 kts 273°
2026-04-30 09:45 39.04645 -84.92062 9750 ft 256 kts 272°
2026-04-30 09:46 39.04698 -84.94340 10410 ft 262 kts 277°
2026-04-30 09:46 39.05071 -84.96671 10725 ft 279 kts 288°
2026-04-30 09:46 39.05835 -84.99075 11073 ft 297 kts 293°
2026-04-30 09:46 39.06675 -85.01575 11500 ft 313 kts 292°
2026-04-30 09:47 39.07520 -85.04200 11911 ft 330 kts 293°
2026-04-30 09:47 39.08551 -85.06929 12373 ft 344 kts 295°
2026-04-30 09:47 39.09633 -85.09700 13109 ft 351 kts 295°
2026-04-30 09:47 39.10708 -85.12502 13991 ft 352 kts 295°
2026-04-30 09:48 39.11772 -85.15303 14885 ft 353 kts 294°
2026-04-30 09:48 39.12847 -85.18150 15706 ft 355 kts 294°
2026-04-30 09:48 39.13921 -85.21005 16464 ft 358 kts 294°
2026-04-30 09:48 39.15009 -85.23903 17229 ft 361 kts 293°
2026-04-30 09:49 39.16095 -85.26796 17983 ft 363 kts 293°
2026-04-30 09:49 39.17193 -85.29727 18714 ft 365 kts 293°
2026-04-30 09:49 39.18299 -85.32685 19394 ft 369 kts 294°
2026-04-30 09:49 39.19408 -85.35652 20014 ft 374 kts 293°
2026-04-30 09:50 39.20530 -85.38652 20683 ft 377 kts 294°
2026-04-30 09:50 39.21864 -85.41586 21306 ft 383 kts 302°
2026-04-30 09:50 39.23513 -85.44313 21905 ft 388 kts 306°
2026-04-30 09:50 39.25235 -85.47010 22582 ft 390 kts 306°
2026-04-30 09:51 39.26946 -85.49690 23176 ft 393 kts 306°
2026-04-30 09:51 39.28675 -85.52407 23724 ft 396 kts 306°
2026-04-30 09:51 39.30432 -85.55172 24266 ft 399 kts 306°
2026-04-30 09:51 39.32188 -85.57940 24823 ft 402 kts 306°
2026-04-30 09:52 39.33946 -85.60713 25364 ft 404 kts 306°
2026-04-30 09:52 39.35748 -85.63563 25895 ft 407 kts 306°
2026-04-30 09:52 39.37536 -85.66391 26389 ft 411 kts 305°
2026-04-30 09:52 39.39341 -85.69250 26994 ft 412 kts 305°
2026-04-30 09:53 39.41154 -85.72125 27555 ft 415 kts 305°
2026-04-30 09:53 39.42975 -85.75015 28066 ft 418 kts 305°
2026-04-30 09:53 39.44814 -85.77937 28543 ft 422 kts 305°
2026-04-30 09:53 39.46684 -85.80909 29045 ft 425 kts 305°
2026-04-30 09:54 39.48529 -85.83846 29611 ft 426 kts 305°
2026-04-30 09:54 39.50384 -85.86799 30377 ft 423 kts 305°
2026-04-30 09:54 39.52215 -85.89716 31101 ft 418 kts 305°
2026-04-30 09:54 39.54044 -85.92639 31706 ft 415 kts 304°
2026-04-30 09:55 39.55814 -85.95623 32218 ft 414 kts 303°
2026-04-30 09:55 39.57551 -85.98595 32631 ft 414 kts 303°
2026-04-30 09:55 39.59302 -86.01590 32963 ft 414 kts 303°
2026-04-30 09:55 39.61049 -86.04574 33313 ft 414 kts 303°
2026-04-30 09:56 39.62805 -86.07573 33734 ft 413 kts 303°
2026-04-30 09:56 39.64551 -86.10558 34029 ft 413 kts 303°
2026-04-30 09:56 39.68044 -86.16531 34080 ft 413 kts 303°
2026-04-30 09:57 39.71512 -86.22468 34080 ft 412 kts 303°
2026-04-30 09:57 39.74983 -86.28420 34087 ft 413 kts 303°
2026-04-30 09:58 39.78457 -86.34391 34087 ft 414 kts 303°
2026-04-30 09:58 39.81902 -86.40321 34086 ft 415 kts 303°
2026-04-30 09:59 39.88835 -86.52288 34076 ft 414 kts 303°
2026-04-30 10:00 39.94020 -86.61266 34072 ft 413 kts 303°
2026-04-30 10:01 39.99379 -86.70046 34087 ft 417 kts 310°
2026-04-30 10:02 40.06770 -86.76392 34091 ft 433 kts 328°
2026-04-30 10:02 40.12235 -86.79744 34084 ft 435 kts 327°
2026-04-30 10:03 40.17685 -86.83115 34085 ft 433 kts 327°
2026-04-30 10:03 40.23140 -86.86512 34087 ft 434 kts 327°
2026-04-30 10:04 40.28567 -86.89905 34084 ft 435 kts 327°
2026-04-30 10:04 40.33992 -86.93305 34084 ft 433 kts 327°
2026-04-30 10:05 40.39466 -86.96745 34084 ft 434 kts 327°
2026-04-30 10:05 40.44873 -87.00150 34086 ft 433 kts 327°
2026-04-30 10:06 40.50304 -87.03577 34079 ft 433 kts 327°
2026-04-30 10:06 40.55727 -87.07005 34080 ft 434 kts 327°
2026-04-30 10:07 40.61354 -87.10014 34074 ft 440 kts 332°
2026-04-30 10:07 40.67045 -87.12897 34076 ft 439 kts 332°
2026-04-30 10:08 40.72767 -87.15829 34069 ft 439 kts 332°
2026-04-30 10:08 40.78435 -87.18754 34069 ft 437 kts 332°
2026-04-30 10:09 40.84130 -87.21706 34073 ft 438 kts 332°
2026-04-30 10:09 40.89781 -87.24644 34073 ft 438 kts 332°
2026-04-30 10:10 40.95461 -87.27606 34076 ft 439 kts 332°
2026-04-30 10:10 41.01129 -87.30566 34082 ft 439 kts 332°
2026-04-30 10:11 41.06632 -87.33947 34081 ft 430 kts 322°
2026-04-30 10:11 41.11146 -87.38910 34084 ft 419 kts 308°
2026-04-30 10:12 41.14441 -87.45182 34082 ft 413 kts 295°
2026-04-30 10:12 41.16346 -87.52257 34078 ft 411 kts 282°
2026-04-30 10:13 41.16848 -87.59794 34080 ft 412 kts 272°
2026-04-30 10:13 41.16894 -87.67402 34086 ft 412 kts 272°
2026-04-30 10:14 41.16925 -87.74989 34093 ft 411 kts 272°
2026-04-30 10:14 41.16956 -87.86362 34096 ft 412 kts 272°
2026-04-30 10:15 41.16968 -87.93977 34094 ft 412 kts 272°
2026-04-30 10:15 41.16974 -88.01521 34096 ft 411 kts 272°
2026-04-30 10:16 41.16975 -88.09102 34094 ft 411 kts 272°
2026-04-30 10:17 41.16967 -88.20503 34094 ft 410 kts 272°
2026-04-30 10:17 41.16948 -88.31803 34094 ft 409 kts 272°
2026-04-30 10:18 41.16929 -88.39328 34090 ft 410 kts 272°
2026-04-30 10:19 41.16891 -88.50660 34088 ft 409 kts 272°
2026-04-30 10:19 41.16860 -88.58202 34085 ft 408 kts 272°
2026-04-30 10:20 41.16824 -88.65704 34088 ft 408 kts 271°
2026-04-30 10:20 41.16761 -88.77001 34099 ft 409 kts 271°
2026-04-30 10:21 41.16713 -88.84528 34098 ft 407 kts 271°